User: anonymous   Login
Location: Prague
(50.0830°N, 14.4670°E)
Time: 12:45:38
(UTC+01:00)
Language:

LO-87 - Orbit

View from above orbital plane
View from above orbital plane
View from above satellite
View from above satellite

Ground track
Ground track

The orbit data is extracted from the following two-line orbital elements,

1 41557U 16033B   21340.08781428  .00004582  00000-0  15706-3 0  9994
2 41557  97.3937  73.1755 0012156 353.7194 128.0802 15.30630614307771
Epoch (UTC): 06 December 2021 02:06:27
Eccentricity: 0.0012156
inclination: 97.3937°
perigee height: 465 km
apogee height: 482 km
right ascension of ascending node: 73.1755°
argument of perigee: 353.7194°
revolutions per day: 15.30630614
mean anomaly at epoch: 128.0802°
orbit number at epoch: 30777

The dashed part of the orbit path shows where the satellite is in the earth's shadow,  

DLR